"2016-01-08 00:00:00",1265691,4.813,83.4,7.137,1.289,4.761,99.65162,-1.588,-0.231,90.8,0,109.6,13.43,-0.84,45.4
"2016-01-08 00:00:30",1265692,5,83.9,7.007,1.277,5.076,99.65162,-1.588,-0.281,90.8,0,109.6,13.43,-0.84,45.9
"2016-01-08 00:01:00",1265693,5.126,84.3,6.606,1.299,5,99.65077,-1.59,-0.252,90.8,0,109.6,13.43,-0.84,46.3
"2016-01-08 00:01:30",1265694,4.23,79.09,5.519,1.145,3.28,99.65049,-1.59,-0.356,90.7,0,109.6,13.43,-0.84,41.1
"2016-01-08 00:02:00",1265695,4.771,82.9,6.767,1.36,3.785,99.64171,-1.613,-0.368,90.8,0,109.6,13.43,-0.87,44.9
"2016-01-08 00:02:30",1265696,4.077,78.66,5.642,1.098,2.639,99.6335,-1.634,-0.423,90.8,0,109.6,13.43,-0.89,40.7
"2016-01-08 00:03:00",1265697,4.969,82.8,6.535,1.366,5.24,99.63066,-1.641,-0.313,90.9,0,109.6,13.43,-0.89,44.8
"2016-01-08 00:03:30",1265698,5.031,83.6,6.716,1.337,4.952,99.62302,-1.661,-0.321,90.9,0,109.6,13.43,-0.91,45.6
"2016-01-08 00:04:00",1265699,4.593,81.1,6.169,1.364,4.175,99.61904,-1.671,-0.336,90.9,0,109.6,13.44,-0.92,43.1
"2016-01-08 00:04:30",1265700,4.796,83.9,6.583,1.319,3.961,99.61961,-1.669,-0.428,90.8,0,109.6,13.43,-0.92,45.9
"2016-01-08 00:05:00",1265701,4.394,80.4,6.199,1.103,2.981,99.61904,-1.671,-0.482,90.8,0,109.6,13.43,-0.92,42.4
"2016-01-08 00:05:30",1265702,4.827,83.1,7.096,1.302,4.204,99.61989,-1.668,-0.38,91,0,109.6,13.44,-0.92,45.1
"2016-01-08 00:06:00",1265703,5.457,84.2,7.089,1.301,5.127,99.61848,-1.672,-0.39,91,0,109.6,13.43,-0.93,46.2
"2016-01-08 00:06:30",1265704,5.43,86,6.775,1.319,5.071,99.61819,-1.673,-0.39,91,0,109.6,13.43,-0.93,48.0
"2016-01-08 00:07:00",1265705,5.509,85.4,6.842,1.303,5.289,99.60771,-1.7,-0.365,91.1,0,109.6,13.44,-0.95,47.4
"2016-01-08 00:07:30",1265706,5.197,84.9,7.166,1.397,4.537,99.59724,-1.726,-0.458,91,0,109.6,13.43,-0.98,46.9
"2016-01-08 00:08:00",1265707,4.926,84.7,6.942,1.303,4.079,99.59157,-1.741,-0.44,91.1,0,109.5,13.44,-0.99,46.7
"2016-01-08 00:08:30",1265708,4.767,82.5,6.39,1.299,3.635,99.58675,-1.753,-0.534,91,0,109.6,13.44,-1.01,44.5
"2016-01-08 00:09:00",1265709,5.188,84.7,6.981,1.313,4.575,99.58873,-1.748,-0.435,91.1,0,109.6,13.44,-1.00,46.7
"2016-01-08 00:09:30",1265710,4.808,83.3,7.11,1.305,4.204,99.59013,-1.744,-0.5,91.1,0,109.6,13.43,-1.00,45.3
"2016-01-08 00:10:00",1265711,5.094,87.7,6.731,1.351,5.152,99.59013,-1.744,-0.428,91.2,0,109.6,13.43,-1.00,49.7
"2016-01-08 00:10:30",1265712,4.429,83.6,6.924,1.335,4.481,99.5907,-1.743,-0.46,91.2,0,109.6,13.43,-1.00,45.6
"2016-01-08 00:11:00",1265713,4.787,89.1,6.68,1.292,5.065,99.59042,-1.744,-0.464,91.2,0,109.6,13.43,-1.00,51.1
"2016-01-08 00:21:30",1265734,4.768,85.8,6.363,1.279,4.007,99.52413,-1.913,-0.678,91.5,0,109.6,13.44,-1.17,47.8
"2016-01-08 00:22:00",1265735,5.318,84.2,6.538,1.249,4.891,99.51903,-1.926,-0.595,91.6,0,109.5,13.44,-1.18,46.2
"2016-01-08 00:22:30",1265736,4.895,80.6,6.776,1.295,4.308,99.50968,-1.949,-0.615,91.6,0,109.5,13.44,-1.20,42.6
"2016-01-08 00:23:00",1265737,4.265,78.23,6.008,1.341,3.576,99.50459,-1.962,-0.709,91.5,0,109.5,13.44,-1.22,40.2
"2016-01-08 00:23:30",1265738,3.998,84,7.979,1.311,3.856,99.49694,-1.982,-0.667,91.6,0,109.6,13.44,-1.24,46.0
"2016-01-08 00:24:00",1265739,3.7,89.7,7.129,1.267,3.683,99.49155,-1.996,-0.78,91.5,0,109.6,13.44,-1.25,51.7
"2016-01-08 00:24:30",1265740,3.08,93.6,5.423,1.019,3.05,99.49014,-1.999,-0.769,91.5,0,109.5,13.44,-1.25,55.6
"2016-01-08 00:25:00",1265741,4.13,101.2,6.622,1.282,4.861,99.49014,-1.999,-0.661,91.7,0,109.5,13.44,-1.25,63.2
"2016-01-08 00:25:30",1265742,3.822,98.2,6.8,1.315,4.205,99.49014,-1.999,-0.644,91.7,0,109.6,13.44,-1.25,60.2
"2016-01-08 00:26:00",1265743,3.977,98,6.517,1.404,4.234,99.49014,-1.999,-0.72,91.7,0,109.5,13.44,-1.25,60.0
"2016-01-08 00:26:30",1265744,3.21,93.3,8.05,1.177,3.111,99.49014,-1.999,-0.742,91.7,0,109.5,13.44,-1.25,55.3
"2016-01-08 00:27:00",1265745,3.977,93.6,6.312,1.3,3.73,99.49014,-1.999,-0.773,91.7,0,109.5,13.44,-1.25,55.6
"2016-01-08 00:27:30",1265746,2.916,92.5,6.442,1.145,2.851,99.49014,-1.999,-0.773,91.7,0,109.5,13.44,-1.25,54.5
"2016-01-08 00:28:00",1265747,4.006,93.9,6.975,1.276,4.84,99.49014,-1.999,-0.675,91.8,0,109.5,13.44,-1.25,55.9
"2016-01-08 00:28:30",1265748,4.247,89.5,6.447,1.294,3.464,99.48759,-2.006,-0.721,91.8,0,109.5,13.44,-1.26,51.5
"2016-01-08 00:29:00",1265749,4.943,90.6,6.359,1.297,4.494,99.47937,-2.027,-0.789,91.7,0,109.5,13.44,-1.28,52.6
"2016-01-08 00:29:30",1265750,4.097,88.8,7.622,1.163,3.243,99.47173,-2.046,-0.755,91.8,0,109.5,13.44,-1.30,50.8
"2016-01-08 00:30:00",1265751,4.476,93,6.147,1.312,4.581,99.47144,-2.047,-0.718,91.8,0,109.5,13.44,-1.30,55.0
"2016-01-08 00:30:30",1265752,4.127,93,7.684,1.312,3.82,99.46691,-2.058,-0.774,91.8,0,109.5,13.44,-1.31,55.0
"2016-01-08 00:31:00",1265753,3.992,100,6.774,1.294,4.355,99.45927,-2.078,-0.681,91.9,0,109.5,13.44,-1.33,62.0
"2016-01-08 00:31:30",1265754,3.511,101.1,6.92,1.353,3.287,99.45671,-2.084,-0.851,91.8,0,109.5,13.44,-1.34,63.1
"2016-01-08 00:32:00",1265755,3.165,101.2,7.445,1.286,3.2,99.45615,-2.086,-0.769,91.9,0,109.5,13.44,-1.34,63.2
"2016-01-08 00:32:30",1265756,2.859,102.2,6.602,1.23,2.816,99.45615,-2.086,-0.838,91.8,0,109.5,13.44,-1.34,64.2
"2016-01-08 00:33:00",1265757,3.238,108.2,6.808,1.333,4.289,99.45615,-2.086,-0.772,91.9,0,109.5,13.45,-1.34,70.2
"2016-01-08 00:33:30",1265758,2.681,107.5,6.635,1.29,3.236,99.45615,-2.086,-0.773,91.9,0,109.5,13.45,-1.34,69.5
"2016-01-08 00:34:00",1265759,2.843,110.1,6.95,1.287,2.782,99.45615,-2.086,-0.785,91.9,0,109.5,13.45,-1.34,72.1
"2016-01-08 00:34:30",1265760,3.104,106.7,7.614,1.324,3.442,99.45615,-2.086,-0.846,91.9,0,109.5,13.44,-1.34,68.7
"2016-01-08 00:35:00",1265761,2.598,100.4,6.915,1.235,2.862,99.45615,-2.086,-0.864,91.9,0,109.5,13.45,-1.34,62.4
"2016-01-08 00:35:30",1265762,3.074,99.5,7.47,1.361,4.487,99.45615,-2.086,-0.797,92,0,109.5,13.45,-1.34,61.5
"2016-01-08 00:36:00",1265763,2.893,96.1,6.478,1.353,3.906,99.45615,-2.086,-0.871,91.9,0,109.5,13.45,-1.34,58.1
"2016-01-08 00:36:30",1265764,3.259,101.2,6.832,1.281,4.687,99.45615,-2.086,-0.846,92,0,109.5,13.45,-1.34,63.2
"2016-01-08 00:37:00",1265765,2.721,93,6.352,1.181,3.012,99.45615,-2.086,-0.856,92,0,109.5,13.45,-1.34,55.0
"2016-01-08 00:37:30",1265766,3.617,92.8,6.998,1.372,3.997,99.45615,-2.086,-0.85,92,0,109.5,13.45,-1.34,54.8
"2016-01-08 00:38:00",1265767,3.151,93.6,7.106,1.313,3.003,99.45615,-2.086,-0.895,92,0,109.5,13.45,-1.34,55.6
"2016-01-08 00:38:30",1265768,3.096,90.6,7.047,1.218,3.251,99.45615,-2.086,-0.863,92,0,109.5,13.45,-1.34,52.6
"2016-01-08 00:39:00",1265769,3.476,94.6,7.736,1.457,4.736,99.45643,-2.085,-0.795,92.1,0,109.5,13.45,-1.34,56.6
"2016-01-08 00:39:30",1265770,3.462,89.2,6.75,1.282,3.971,99.45671,-2.084,-0.795,92.1,0,109.5,13.45,-1.34,51.2
"2016-01-08 00:40:00",1265771,3.207,83.4,7.173,1.304,3.567,99.45728,-2.083,-0.795,92.1,0,109.5,13.45,-1.34,45.4
"2016-01-08 00:40:30",1265772,3.967,83.7,6.417,1.319,3.687,99.45812,-2.081,-0.842,92.1,0,109.5,13.45,-1.34,45.7
"2016-01-08 00:41:00",1265773,3.985,81.2,6.985,1.465,3.553,99.4584,-2.08,-0.873,92.1,0,109.5,13.45,-1.34,43.2
"2016-01-08 00:41:30",1265774,4.461,86,6.911,1.283,4.943,99.45812,-2.081,-0.779,92.2,0,109.5,13.44,-1.34,48.0
"2016-01-08 00:42:00",1265775,3.9,82.9,6.905,1.248,3.699,99.45728,-2.083,-0.84,92.2,0,109.5,13.45,-1.34,44.9
"2016-01-08 00:42:30",1265776,4.181,88.7,7.064,1.255,4.957,99.45812,-2.081,-0.793,92.2,0,109.5,13.45,-1.34,50.7
"2016-01-08 00:43:00",1265777,3.129,81.1,6.439,1.101,2.952,99.45869,-2.079,-0.831,92.2,0,109.5,13.45,-1.33,43.1
"2016-01-08 00:43:30",1265778,4.41,85.3,6.898,1.259,4.189,99.45897,-2.079,-0.847,92.2,0,109.5,13.44,-1.33,47.3
"2016-01-08 00:44:00",1265779,3.533,79.59,6.214,1.215,3.537,99.45869,-2.079,-0.805,92.3,0,109.5,13.44,-1.33,41.6
"2016-01-08 00:44:30",1265780,4.177,84.7,7.799,1.391,4.899,99.4584,-2.08,-0.74,92.3,0,109.5,13.44,-1.34,46.7
"2016-01-08 00:45:00",1265781,4.235,84.9,7.383,1.317,4.607,99.45897,-2.079,-0.825,92.3,0,109.5,13.44,-1.33,46.9
"2016-01-08 00:45:30",1265782,4.054,82.9,7.14,1.33,3.977,99.45812,-2.081,-0.809,92.3,0,109.5,13.44,-1.34,44.9
"2016-01-08 00:46:00",1265783,3.158,80.6,6.44,1.137,2.641,99.46067,-2.074,-0.858,92.3,0,109.5,13.44,-1.33,42.6
"2016-01-08 00:46:30",1265784,3.507,82.4,6.872,1.297,3.279,99.46095,-2.074,-0.788,92.4,0,109.5,13.44,-1.33,44.4
"2016-01-08 00:47:00",1265785,3.749,85.4,8.76,1.351,4.204,99.46434,-2.065,-0.77,92.4,0,109.5,13.44,-1.32,47.4
"2016-01-08 00:47:30",1265786,4.149,85.5,7.502,1.292,4.295,99.46547,-2.062,-0.788,92.4,0,109.5,13.44,-1.32,47.5
"2016-01-08 00:48:00",1265787,4.002,85.4,7.165,1.347,4.278,99.47026,-2.05,-0.733,92.4,0,109.5,13.44,-1.30,47.4
"2016-01-08 00:48:30",1265788,4.265,85.2,6.212,1.279,4.092,99.47337,-2.042,-0.819,92.4,0,109.5,13.44,-1.30,47.2
"2016-01-08 00:49:00",1265789,4.221,86.6,7.392,1.335,4.338,99.4745,-2.039,-0.767,92.4,0,109.5,13.44,-1.29,48.6
"2016-01-08 00:49:30",1265790,3.639,86.1,7.878,1.262,3.812,99.4714,-2.047,-0.843,92.4,0,109.5,13.45,-1.30,48.1
"2016-01-08 00:50:00",1265791,3.708,87.9,7.866,1.344,4.427,99.47168,-2.046,-0.729,92.5,0,109.5,13.45,-1.30,49.9
"2016-01-08 00:50:30",1265792,3.39,92.1,7.966,1.311,4.28,99.47365,-2.041,-0.766,92.5,0,109.5,13.45,-1.30,54.1
"2016-01-08 00:51:00",1265793,3.377,85.2,6.923,1.335,3.507,99.47195,-2.046,-0.788,92.4,0,109.5,13.45,-1.30,47.2
"2016-01-08 00:51:30",1265794,3.383,84.7,6.584,1.328,2.952,99.46912,-2.053,-0.862,92.4,0,109.5,13.45,-1.31,46.7
"2016-01-08 00:52:00",1265795,3.922,80,7.48,1.371,3.925,99.47222,-2.045,-0.748,92.5,0,109.5,13.45,-1.30,42.0
"2016-01-08 00:52:30",1265796,3.629,78.85,6.534,1.29,3.32,99.47137,-2.047,-0.778,92.5,0,109.5,13.45,-1.30,40.8
"2016-01-08 00:53:00",1265797,4.267,82.9,6.636,1.311,4.868,99.47166,-2.046,-0.714,92.6,0,109.5,13.45,-1.30,44.9
"2016-01-08 00:53:30",1265798,3.956,79.54,8.29,1.329,4.202,99.47193,-2.046,-0.792,92.5,0,109.5,13.45,-1.30,41.5
"2016-01-08 00:54:00",1265799,4.084,82,8.16,1.29,3.865,99.47193,-2.046,-0.791,92.5,0,109.5,13.45,-1.30,44.0
"2016-01-08 00:54:30",1265800,3.385,76.68,7.822,1.265,2.826,99.47362,-2.041,-0.834,92.5,0,109.5,13.45,-1.30,38.7
"2016-01-08 00:55:00",1265801,3.704,79.62,7.241,1.304,3.862,99.4739,-2.041,-0.768,92.5,0,109.5,13.45,-1.30,41.6
"2016-01-08 00:55:30",1265802,3.454,79.54,9.01,1.38,3.811,99.4739,-2.041,-0.809,92.5,0,109.6,13.45,-1.30,41.5
"2016-01-08 00:56:00",1265803,3.72,81.1,7.778,1.412,3.957,99.47362,-2.041,-0.805,92.5,0,109.5,13.45,-1.30,43.1
"2016-01-08 00:56:30",1265804,3.963,79.84,6.235,1.24,4.866,99.4725,-2.044,-0.754,92.6,0,109.5,13.44,-1.30,41.8
"2016-01-08 00:57:00",1265805,2.954,75.56,8.17,1.237,2.733,99.47503,-2.038,-0.839,92.5,0,109.5,13.45,-1.29,37.6
"2016-01-08 00:57:30",1265806,3.971,79.18,8.55,1.307,3.61,99.47587,-2.035,-0.835,92.5,0,109.5,13.45,-1.29,41.2
"2016-01-08 00:58:00",1265807,2.962,72.54,8.01,1.24,2.825,99.47587,-2.035,-0.815,92.6,0,109.5,13.45,-1.29,34.5
"2016-01-08 00:58:30",1265808,3.399,75.19,7.955,1.334,3.629,99.47559,-2.036,-0.801,92.6,0,109.5,13.45,-1.29,37.2
"2016-01-08 00:59:00",1265809,3.681,75.48,5.912,1.326,3.705,99.47672,-2.033,-0.848,92.6,0,109.5,13.45,-1.29,37.5
"2016-01-08 00:59:30",1265810,3.538,68.69,8.61,1.327,3.05,99.47502,-2.038,-0.833,92.6,0,109.5,13.45,-1.29,30.7
"2016-01-08 01:00:00",1265811,3.231,69.28,8.48,1.315,3.239,99.4736,-2.041,-0.795,92.6,0,109.5,13.45,-1.30,31.3
"2016-01-08 01:00:30",1265812,3.436,71.22,8.51,1.313,3.181,99.46738,-2.057,-0.85,92.6,0,109.5,13.44,-1.31,33.2
"2016-01-08 01:01:00",1265813,2.888,71.02,8.41,1.217,2.891,99.46341,-2.067,-0.877,92.6,0,109.5,13.44,-1.32,33.0
"2016-01-08 01:06:30",1265824,3.064,84.8,10.94,1.325,3.205,99.443,-2.119,-0.885,92.7,0,109.5,13.45,-1.37,46.8
"2016-01-08 01:07:00",1265825,3.134,88.9,6.747,1.407,3.494,99.443,-2.119,-0.927,92.6,0,109.5,13.45,-1.37,50.9
"2016-01-08 01:07:30",1265826,3.336,88.1,9.05,1.283,3.465,99.44244,-2.121,-0.862,92.7,0,109.5,13.46,-1.38,50.1
"2016-01-08 01:08:00",1265827,3.453,79.14,8.26,1.332,3.684,99.44244,-2.121,-0.851,92.8,0,109.5,13.45,-1.38,41.1
"2016-01-08 01:08:30",1265828,3.624,81.7,8.45,1.263,3.7,99.44216,-2.121,-0.884,92.7,0,109.5,13.45,-1.38,43.7
"2016-01-08 01:09:00",1265829,3.187,86.1,7.694,1.325,2.772,99.44273,-2.12,-0.946,92.7,0,109.5,13.45,-1.38,48.1
"2016-01-08 01:09:30",1265830,3.125,95,7.678,1.249,2.597,99.44103,-2.124,-0.907,92.7,0,109.5,13.46,-1.38,57.0
"2016-01-08 01:10:00",1265831,3.263,91.4,9.02,1.336,4.019,99.43366,-2.143,-0.873,92.8,0,109.5,13.45,-1.40,53.4
"2016-01-08 01:10:30",1265832,3.413,84.5,7.637,1.424,4.09,99.42715,-2.16,-0.912,92.7,0,109.5,13.44,-1.42,46.5
"2016-01-08 01:11:00",1265833,3.441,83.4,6.704,1.318,3.681,99.42544,-2.164,-0.879,92.8,0,109.5,13.45,-1.42,45.4
"2016-01-08 01:11:30",1265834,2.94,78.62,6.337,1.245,2.572,99.42261,-2.171,-0.975,92.7,0,109.5,13.45,-1.43,40.6
"2016-01-08 01:12:00",1265835,3.381,82,7.478,1.356,3.254,99.41779,-2.184,-0.909,92.8,0,109.5,13.45,-1.44,44.0
"2016-01-08 01:12:30",1265836,2.855,78.86,7.437,1.201,2.498,99.41524,-2.19,-0.967,92.8,0,109.5,13.45,-1.45,40.9
"2016-01-08 01:13:00",1265837,2.81,83,8.73,1.303,3.866,99.41183,-2.199,-0.899,92.8,0,109.5,13.45,-1.45,45.0
"2016-01-08 01:13:30",1265838,2.888,88.2,7.244,1.346,3.784,99.40901,-2.206,-0.984,92.8,0,109.5,13.45,-1.46,50.2
"2016-01-08 01:14:00",1265839,2.721,77.04,5.873,1.155,2.696,99.40929,-2.205,-0.921,92.8,0,109.5,13.45,-1.46,39.0
"2016-01-08 01:14:30",1265840,3.469,79.38,6.898,1.324,3.101,99.40872,-2.207,-0.987,92.8,0,109.5,13.45,-1.46,41.4
"2016-01-08 01:15:00",1265841,3.189,78.85,6.515,1.344,2.824,99.40984,-2.204,-0.955,92.8,0,109.5,13.45,-1.46,40.8
"2016-01-08 01:15:30",1265842,2.935,74.24,10.04,1.228,3.109,99.40984,-2.204,-0.907,92.9,0,109.5,13.45,-1.46,36.2
"2016-01-08 01:16:00",1265843,3.234,78.81,10.57,1.282,3.14,99.40929,-2.205,-1.008,92.8,0,109.5,13.45,-1.46,40.8
"2016-01-08 01:16:30",1265844,2.965,76.08,7.89,1.227,3.151,99.41042,-2.202,-0.946,92.9,0,109.5,13.45,-1.46,38.1
"2016-01-08 01:17:00",1265845,3.275,82.8,6.994,1.468,3.881,99.40957,-2.204,-0.969,92.9,0,109.5,13.44,-1.46,44.8
"2016-01-08 01:17:30",1265846,2.625,74.19,6.961,1.19,2.654,99.41069,-2.202,-1.014,92.8,0,109.5,13.44,-1.46,36.2
"2016-01-08 01:18:00",1265847,3.144,79.07,6.736,1.461,3.266,99.41069,-2.202,-0.948,92.9,0,109.5,13.44,-1.46,41.1
"2016-01-08 01:18:30",1265848,3.312,82.2,7.008,1.354,4.006,99.409,-2.206,-0.953,92.9,0,109.5,13.44,-1.46,44.2
"2016-01-08 01:19:00",1265849,2.698,78.58,7.137,1.225,3.433,99.40871,-2.207,-0.916,92.9,0,109.5,13.44,-1.46,40.6
"2016-01-08 01:19:30",1265850,2.666,80.2,7.193,1.29,2.898,99.4053,-2.215,-1.05,92.8,0,109.5,13.44,-1.47,42.2
"2016-01-08 01:20:00",1265851,3.064,77.81,7.423,1.364,3.553,99.40107,-2.226,-0.978,92.9,0,109.5,13.44,-1.48,39.8
"2016-01-08 01:20:30",1265852,2.847,77.99,5.584,1.35,3.046,99.39738,-2.236,-0.961,92.9,0,109.5,13.44,-1.49,40.0
"2016-01-08 01:21:00",1265853,3.072,77.66,6.657,1.297,2.681,99.39342,-2.246,-1.06,92.8,0,109.5,13.44,-1.50,39.7
"2016-01-08 01:26:30",1265864,3.51,71.16,10.4,1.303,3.706,99.38974,-2.255,-1.002,93,0,109.5,13.45,-1.51,33.2
"2016-01-08 01:27:00",1265865,3.074,72.05,9.05,1.381,2.781,99.38804,-2.259,-1.082,93,0,109.5,13.45,-1.52,34.1
"2016-01-08 01:27:30",1265866,2.594,77.15,9.08,1.431,2.985,99.39029,-2.254,-1.022,93,0,109.5,13.45,-1.51,39.2
"2016-01-08 01:28:00",1265867,2.34,80.6,7.611,1.351,3.646,99.39,-2.254,-1.096,93,0,109.5,13.45,-1.51,42.6
"2016-01-08 01:28:30",1265868,1.46,83.6,6.367,1.184,2.267,99.38718,-2.262,-1.085,93,0,109.5,13.45,-1.52,45.6
"2016-01-08 01:29:00",1265869,2.164,91.3,9.19,1.37,3.615,99.38604,-2.264,-1.051,93,0,109.5,13.45,-1.52,53.3
"2016-01-08 01:29:30",1265870,2.122,76.36,11.01,1.269,2.335,99.38546,-2.266,-1.051,93,0,109.5,13.45,-1.52,38.4
"2016-01-08 01:30:00",1265871,1.865,80.1,13.62,1.13,2.147,99.38376,-2.27,-1.105,93,0,109.5,13.46,-1.53,42.1
"2016-01-08 01:30:30",1265872,1.563,82.8,15.29,1.341,3.043,99.38177,-2.275,-0.993,93.1,0,109.5,13.45,-1.53,44.8
"2016-01-08 01:31:00",1265873,2.055,74.18,5.155,1.206,2.826,99.3829,-2.272,-1.109,93,0,109.5,13.46,-1.53,36.2
"2016-01-08 01:31:30",1265874,2.19,69.99,7.285,1.257,2.487,99.38093,-2.277,-1.103,93,0,109.5,13.45,-1.53,32.0
"2016-01-08 01:32:00",1265875,3.075,72.4,8.11,1.318,2.995,99.38206,-2.275,-1,93.1,0,109.5,13.45,-1.53,34.4
"2016-01-08 01:32:30",1265876,3.051,73.53,9.35,1.328,2.731,99.38093,-2.277,-1.091,93,0,109.5,13.46,-1.53,35.5
"2016-01-08 01:33:00",1265877,2.832,71.8,6.621,1.197,2.799,99.38064,-2.278,-1.051,93.1,0,109.5,13.45,-1.53,33.8
"2016-01-08 01:33:30",1265878,3.395,80,7.168,1.353,3.887,99.3812,-2.277,-1.059,93.1,0,109.5,13.44,-1.53,42.0
"2016-01-08 01:34:00",1265879,2.885,75.74,5.535,1.145,2.716,99.38232,-2.274,-1.079,93.1,0,109.5,13.45,-1.53,37.7
"2016-01-08 01:34:30",1265880,3.927,82,6.607,1.323,3.894,99.38232,-2.274,-1.034,93.1,0,109.5,13.44,-1.53,44.0
"2016-01-08 01:35:00",1265881,3.67,80.2,7.068,1.297,3.228,99.3829,-2.272,-1.046,93.1,0,109.5,13.44,-1.53,42.2
"2016-01-08 01:35:30",1265882,3.282,80.7,7.284,1.265,3.04,99.38261,-2.273,-1.044,93.1,0,109.5,13.44,-1.53,42.7
"2016-01-08 01:36:00",1265883,3.251,80.9,7.344,1.248,3.194,99.3812,-2.277,-1.078,93.1,0,109.5,13.44,-1.53,42.9
"2016-01-08 01:36:30",1265884,3.335,77.08,6.324,1.323,3.155,99.3812,-2.277,-1.065,93.2,0,109.5,13.44,-1.53,39.1
"2016-01-08 01:37:00",1265885,3.554,76.24,6.801,1.312,2.851,99.3778,-2.285,-1.088,93.1,0,109.5,13.44,-1.54,38.2
"2016-01-08 01:37:30",1265886,3.958,76.85,7.139,1.318,3.754,99.36788,-2.311,-1.006,93.2,0,109.5,13.44,-1.57,38.8
"2016-01-08 01:38:00",1265887,3.667,78.5,6.839,1.358,3.221,99.36419,-2.32,-1.126,93.1,0,109.5,13.44,-1.58,40.5
"2016-01-08 01:38:30",1265888,3.277,81.3,6.843,1.319,3,99.36504,-2.318,-1.028,93.2,0,109.5,13.45,-1.57,43.3
"2016-01-08 01:39:00",1265889,3.557,88.6,7.716,1.357,4.333,99.36193,-2.326,-1.077,93.2,0,109.5,13.45,-1.58,50.6
"2016-01-08 01:39:30",1265890,3.448,87.7,7.069,1.291,3.904,99.35767,-2.337,-1.077,93.2,0,109.5,13.45,-1.59,49.7
"2016-01-08 01:40:00",1265891,2.766,83.8,5.917,1.13,2.764,99.35313,-2.348,-1.121,93.1,0,109.5,13.45,-1.60,45.8
"2016-01-08 01:40:30",1265892,3.609,87.1,7.236,1.355,4.074,99.35059,-2.355,-1.054,93.2,0,109.5,13.46,-1.61,49.1
"2016-01-08 01:41:00",1265893,3.255,82.7,6.513,1.319,3.23,99.34805,-2.361,-1.077,93.2,0,109.5,13.45,-1.62,44.7
"2016-01-08 01:41:30",1265894,3.549,80.9,6.997,1.354,3.341,99.35058,-2.355,-1.155,93.1,0,109.5,13.45,-1.61,42.9
"2016-01-08 01:42:00",1265895,3.488,82,6.853,1.36,4.027,99.34917,-2.358,-1.083,93.2,0,109.5,13.46,-1.61,44.0
"2016-01-08 01:42:30",1265896,3.647,81.2,6.831,1.31,4.069,99.34917,-2.358,-1.115,93.2,0,109.5,13.45,-1.61,43.2
"2016-01-08 01:43:00",1265897,2.89,77.16,6.127,1.19,2.81,99.34946,-2.358,-1.11,93.2,0,109.5,13.46,-1.61,39.2
"2016-01-08 01:43:30",1265898,3.238,79.83,6.828,1.335,2.821,99.34834,-2.361,-1.135,93.2,0,109.5,13.45,-1.62,41.8
"2016-01-08 01:44:00",1265899,3.348,82.7,7.3,1.34,3.093,99.34917,-2.358,-1.091,93.2,0,109.5,13.45,-1.61,44.7
"2016-01-08 01:44:30",1265900,3.267,83.3,6.151,1.264,3.212,99.34917,-2.358,-1.159,93.2,0,109.5,13.46,-1.61,45.3
"2016-01-08 01:45:00",1265901,3.042,80.5,6.396,1.217,3.239,99.34861,-2.36,-1.128,93.2,0,109.5,13.45,-1.62,42.5
"2016-01-08 01:45:30",1265902,3.673,84.8,6.963,1.364,4.403,99.34834,-2.361,-1.133,93.2,0,109.5,13.46,-1.62,46.8
"2016-01-08 01:46:00",1265903,3.16,82.4,6.657,1.262,3.394,99.34946,-2.358,-1.123,93.3,0,109.5,13.45,-1.61,44.4
"2016-01-08 01:46:30",1265904,3.407,83.7,6.991,1.349,3.63,99.34973,-2.357,-1.09,93.3,0,109.5,13.46,-1.61,45.7
"2016-01-08 01:47:00",1265905,3.118,82.2,6.583,1.217,2.936,99.34889,-2.359,-1.176,93.2,0,109.5,13.46,-1.62,44.2
"2016-01-08 01:47:30",1265906,3.084,80.3,6.031,1.255,3.256,99.34917,-2.358,-1.106,93.3,0,109.5,13.45,-1.61,42.3
"2016-01-08 01:48:00",1265907,3.522,81.3,7.205,1.325,3.87,99.34861,-2.36,-1.133,93.3,0,109.5,13.45,-1.62,43.3
"2016-01-08 01:48:30",1265908,3.464,83.2,7.511,1.326,4.172,99.34834,-2.361,-1.12,93.3,0,109.5,13.45,-1.62,45.2
"2016-01-08 01:49:00",1265909,2.896,78.92,5.619,1.156,2.21,99.34917,-2.358,-1.181,93.2,0,109.5,13.46,-1.61,40.9
"2016-01-08 01:49:30",1265910,3.532,83.9,7.35,1.375,3.534,99.34973,-2.357,-1.144,93.3,0,109.5,13.45,-1.61,45.9
"2016-01-08 01:50:00",1265911,2.704,81.6,6.212,0.986,2.438,99.3503,-2.355,-1.122,93.3,0,109.5,13.45,-1.61,43.6
"2016-01-08 01:50:30",1265912,3.787,84.3,7.06,1.36,4.223,99.34946,-2.358,-1.164,93.3,0,109.5,13.44,-1.61,46.3
"2016-01-08 01:51:00",1265913,3.707,83.8,7.072,1.382,4.129,99.34973,-2.357,-1.122,93.3,0,109.5,13.45,-1.61,45.8
"2016-01-08 01:51:30",1265914,3.123,80.3,5.923,1.246,2.79,99.3503,-2.355,-1.192,93.2,0,109.5,13.44,-1.61,42.3
"2016-01-08 01:52:00",1265915,3.616,83.4,6.365,1.35,3.302,99.34834,-2.361,-1.122,93.3,0,109.5,13.44,-1.62,45.4
"2016-01-08 01:52:30",1265916,3.767,85.2,6.343,1.349,3.449,99.34834,-2.361,-1.179,93.3,0,109.5,13.44,-1.62,47.2
"2016-01-08 01:53:00",1265917,3.534,84.8,7.107,1.362,3.632,99.34973,-2.357,-1.153,93.3,0,109.5,13.44,-1.61,46.8
"2016-01-08 01:53:30",1265918,3.482,83.9,6.784,1.332,4.015,99.35058,-2.355,-1.107,93.4,0,109.5,13.44,-1.61,45.9
"2016-01-08 01:54:00",1265919,3.297,82.5,6.75,1.361,3.815,99.34946,-2.358,-1.158,93.4,0,109.5,13.44,-1.61,44.5
"2016-01-08 01:54:30",1265920,3.504,84.9,7.004,1.339,3.955,99.34861,-2.36,-1.112,93.4,0,109.5,13.44,-1.62,46.9
"2016-01-08 01:55:00",1265921,3.037,79.51,6.216,1.268,2.542,99.34777,-2.362,-1.195,93.3,0,109.5,13.44,-1.62,41.5
"2016-01-08 01:55:30",1265922,3.135,81.2,6.943,1.315,3.297,99.34861,-2.36,-1.104,93.4,0,109.5,13.45,-1.62,43.2
"2016-01-08 01:56:00",1265923,3.462,79.94,6.771,1.363,3.488,99.35058,-2.355,-1.174,93.3,0,109.5,13.45,-1.61,41.9
"2016-01-08 01:56:30",1265924,2.945,77.88,6.809,1.276,3.097,99.34973,-2.357,-1.145,93.4,0,109.5,13.45,-1.61,39.9
"2016-01-08 01:57:00",1265925,2.922,78.31,6.995,1.27,3.437,99.34973,-2.357,-1.095,93.4,0,109.5,13.45,-1.61,40.3
"2016-01-08 01:57:30",1265926,3.092,77,7.428,1.295,3.097,99.34805,-2.361,-1.196,93.3,0,109.5,13.45,-1.62,39.0
"2016-01-08 01:58:00",1265927,2.753,76.1,6.664,1.179,2.656,99.34946,-2.358,-1.164,93.4,0,109.5,13.45,-1.61,38.1
"2016-01-08 01:58:30",1265928,3.23,75.54,6.335,1.255,2.695,99.34973,-2.357,-1.162,93.4,0,109.5,13.45,-1.61,37.5
"2016-01-08 01:59:00",1265929,3.634,77.12,7.527,1.362,3.494,99.34777,-2.362,-1.119,93.4,0,109.5,13.45,-1.62,39.1
"2016-01-08 01:59:30",1265930,3.312,75.88,6.591,1.308,3.081,99.34861,-2.36,-1.092,93.5,0,109.5,13.45,-1.62,37.9
"2016-01-08 02:00:00",1265931,3.87,79.69,7.579,1.363,3.868,99.3503,-2.355,-1.167,93.4,0,109.5,13.46,-1.61,41.7
"2016-01-08 02:00:30",1265932,3.247,74.86,5.859,1.143,2.346,99.35058,-2.355,-1.175,93.4,0,109.5,13.45,-1.61,36.9
"2016-01-08 02:01:00",1265933,3.998,79.11,7.081,1.325,3.539,99.34946,-2.358,-1.162,93.4,0,109.5,13.45,-1.61,41.1
"2016-01-08 02:01:30",1265934,4.197,81.2,6.925,1.342,3.703,99.34973,-2.357,-1.134,93.4,0,109.5,13.45,-1.61,43.2
"2016-01-08 02:02:00",1265935,3.71,79.03,6.863,1.311,3.445,99.35114,-2.353,-1.101,93.5,0,109.5,13.45,-1.61,41.0
"2016-01-08 02:02:30",1265936,3.968,80.9,7.09,1.349,3.623,99.35086,-2.354,-1.134,93.5,0,109.5,13.45,-1.61,42.9
"2016-01-08 02:03:00",1265937,4.349,82.7,6.83,1.285,4.306,99.35001,-2.356,-1.161,93.5,0,109.5,13.45,-1.61,44.7
"2016-01-08 02:03:30",1265938,3.725,79.65,5.994,1.184,2.624,99.34889,-2.359,-1.173,93.4,0,109.5,13.46,-1.62,41.7
"2016-01-08 02:04:00",1265939,4.548,83.7,6.788,1.333,4.123,99.34973,-2.357,-1.148,93.5,0,109.5,13.45,-1.61,45.7
"2016-01-08 02:04:30",1265940,3.933,80.1,6.42,1.25,3.405,99.34946,-2.358,-1.169,93.4,0,109.5,13.45,-1.61,42.1
"2016-01-08 02:05:00",1265941,4.168,81.9,6.777,1.356,4.455,99.34973,-2.357,-1.066,93.6,0,109.5,13.45,-1.61,43.9
"2016-01-08 02:05:30",1265942,4.313,81.6,6.754,1.332,3.889,99.35086,-2.354,-1.153,93.5,0,109.5,13.44,-1.61,43.6
"2016-01-08 02:06:00",1265943,4.642,82.8,6.877,1.351,4.33,99.3503,-2.355,-1.098,93.5,0,109.5,13.45,-1.61,44.8
"2016-01-08 02:06:30",1265944,3.893,78.27,6.02,1.158,2.871,99.35058,-2.355,-1.166,93.5,0,109.5,13.45,-1.61,40.3
"2016-01-08 02:07:00",1265945,4.656,82.5,6.842,1.363,4.203,99.35086,-2.354,-1.153,93.5,0,109.5,13.44,-1.61,44.5
"2016-01-08 02:07:30",1265946,4.326,82.4,6.903,1.311,4.038,99.35086,-2.354,-1.132,93.5,0,109.5,13.45,-1.61,44.4